Terminal Aerodrome Forecast
Issued by NWS Sterling, VA

Current Version | Previous Version | Graphics & Text | Print | Product List | Glossary On
Versions: 1 2 3 4 5 6 7 8 9 10 11 12 13 14 15 16 17 18 19 20 21
000
FTUS41 KLWX 182000 AAA
TAFDCA
TAF AMD
KDCA 182059Z 1821/1918 31012KT P6SM BKN040
     FM182300 31007KT P6SM SCT150
     FM190300 31006KT P6SM BKN100
     FM190900 30006KT P6SM SCT045
     FM191600 31010KT P6SM SCT035=

USA.gov is the U.S. government's official web portal to all federal, state and local government web resources and services.